Jacksonville, AR

10:53 AM CDT on September 28, 2016 (GMT -0500)
Little Rock Air Force Base

Weather History for KLRF - February, 2013

Change the Weather History Date:

Monday, February 25, 2013

  Actual Average Record
Temperature  
Mean Temperature 46 °F -  
Max Temperature 50 °F 58 °F 54 °F (2014)
Min Temperature 43 °F 34 °F 26 °F (2015)
Degree Days  
Heating Degree Days 18    
Moisture  
Dew Point 42 °F    
Average Humidity 84    
Maximum Humidity 100    
Minimum Humidity 57    
Precipitation  
Precipitation 1.14 in - - ()
Sea Level Pressure  
Sea Level Pressure 29.55 in    
Wind  
Wind Speed 12 mph (NE)    
Max Wind Speed 22 mph    
Max Gust Speed 28 mph    
Visibility 7 miles    
Events Rain , Thunderstorm    
Averages and records for this station are not official NWS values.
T = Trace of Precipitation, MM = Missing Value Source: NWS Daily Summary

Daily Weather History Graph

Daily Weather History Graph

Search for Another Location

Airport or City:

Trip Planner

Search our weather history database for the weather conditions in past years. The results will help you decide how hot, cold, wet, or windy it might be!

Date:

Astronomy

Feb. 25, 2013 Rise Set
Actual Time 6:42 AM CST 6:01 PM CST
Civil Twilight 6:17 AM CST 6:26 PM CST
Nautical Twilight 5:47 AM CST 6:55 PM CST
Astronomical Twilight 5:18 AM CST 7:25 PM CST
Moon 6:12 PM CST (2/25) 6:14 AM CST (2/25)
Length of Visible Light 12h 09m
Length of Day
11h 18m
Full, 100% of the Moon is Illuminated
Feb 25
Full
Feb 25
Full
Mar 4
Last Quarter
Mar 11
New
Mar 19
First Quarter

Hourly Weather History & Observations

Time (CST) Temp. Windchill Dew Point Humidity Pressure Visibility Wind Dir Wind Speed Gust Speed Precip Events Conditions
12:58 AM 44.4 °F 40.0 °F 34.2 °F 67% 29.88 in 10.0 mi NE 8.1 mph - N/A   Mostly Cloudy
1:58 AM 44.2 °F 38.8 °F 33.6 °F 66% 29.86 in 10.0 mi NE 10.4 mph - N/A   Scattered Clouds
2:58 AM 43.9 °F 38.3 °F 32.5 °F 64% 29.84 in 10.0 mi ENE 10.4 mph - N/A   Partly Cloudy
3:58 AM 43.5 °F 37.1 °F 32.0 °F 64% 29.83 in 10.0 mi NE 12.7 mph - N/A   Clear
4:58 AM 43.7 °F 37.3 °F 31.1 °F 61% 29.81 in 10.0 mi NE 12.7 mph 21.9 mph N/A   Mostly Cloudy
5:58 AM 43.2 °F 36.6 °F 30.9 °F 62% 29.81 in 10.0 mi ENE 12.7 mph - N/A   Partly Cloudy
6:58 AM 43.2 °F 36.6 °F 30.2 °F 60% 29.79 in 10.0 mi NE 12.7 mph - N/A   Scattered Clouds
7:58 AM 44.4 °F 38.2 °F 30.6 °F 58% 29.81 in 10.0 mi ENE 12.7 mph - N/A   Mostly Cloudy
8:58 AM 45.7 °F 38.6 °F 31.8 °F 58% 29.78 in 10.0 mi ENE 17.3 mph - N/A   Scattered Clouds
9:53 AM 46.4 °F 40.1 °F 32.0 °F 57% 29.77 in 10.0 mi East 15.0 mph - N/A   Mostly Cloudy
9:58 AM 46.9 °F - 32.7 °F 58% 29.78 in 10.0 mi East 13.8 mph - N/A   Mostly Cloudy
10:05 AM 46.4 °F 39.8 °F 32.0 °F 57% 29.76 in 10.0 mi East 16.1 mph - N/A Rain Light Rain
10:19 AM 46.4 °F 40.4 °F 32.0 °F 57% 29.75 in 10.0 mi East 13.8 mph - N/A   Overcast
10:58 AM 47.8 °F - 33.1 °F 57% 29.74 in 10.0 mi East 15.0 mph - 0.00 in   Overcast
11:17 AM 48.2 °F - 33.8 °F 58% 29.71 in 10.0 mi East 16.1 mph - N/A Rain Light Rain
11:26 AM 48.2 °F - 35.6 °F 62% 29.70 in 10.0 mi East 13.8 mph - N/A   Overcast
11:58 AM 50.0 °F - 35.4 °F 57% 29.69 in 10.0 mi East 15.0 mph - 0.00 in   Overcast
12:07 PM 50.0 °F - 35.6 °F 58% 29.68 in 10.0 mi East 12.7 mph - N/A   Light Drizzle
12:24 PM 50.0 °F - 37.4 °F 62% 29.65 in 10.0 mi East 16.1 mph - N/A   Overcast
12:58 PM 50.5 °F - 38.7 °F 64% 29.63 in 10.0 mi East 20.7 mph - 0.00 in   Overcast
1:17 PM 50.0 °F - 41.0 °F 71% 29.60 in 10.0 mi ESE 19.6 mph 25.3 mph N/A Rain Light Rain
1:23 PM 48.2 °F - 41.0 °F 76% 29.59 in 10.0 mi East 15.0 mph - N/A   Overcast
1:24 PM 48.2 °F - 41.0 °F 76% 29.59 in 10.0 mi ESE 16.1 mph - N/A Rain Light Rain
1:27 PM 48.2 °F - 41.0 °F 76% 29.61 in 10.0 mi ESE 16.1 mph - N/A Rain , Thunderstorm Light Thunderstorms and Rain
1:32 PM 48.2 °F - 42.8 °F 82% 29.59 in 2.0 mi East 21.9 mph 27.6 mph N/A Rain , Thunderstorm Light Thunderstorms and Rain
1:37 PM 48.2 °F - 42.8 °F 82% 29.59 in 1.5 mi East 17.3 mph 27.6 mph N/A Rain , Thunderstorm Light Thunderstorms and Rain
1:42 PM 46.4 °F 38.7 °F 42.8 °F 87% 29.57 in 2.5 mi East 20.7 mph 27.6 mph N/A Rain , Thunderstorm Light Thunderstorms and Rain
1:44 PM 46.4 °F 39.0 °F 42.8 °F 87% 29.58 in 2.5 mi East 19.6 mph 27.6 mph N/A Rain Light Rain
1:49 PM 46.4 °F 39.2 °F 42.8 °F 87% 29.57 in 3.0 mi East 18.4 mph 27.6 mph N/A Rain Light Rain
1:58 PM 46.6 °F - 43.5 °F 89% 29.57 in 6.0 mi East 16.1 mph - 0.07 in Rain Light Rain
2:14 PM 46.4 °F 39.5 °F 44.6 °F 93% 29.54 in 4.0 mi East 17.3 mph - N/A   Clear
2:18 PM 46.4 °F 39.5 °F 44.6 °F 93% 29.54 in 4.0 mi East 17.3 mph - N/A Rain Light Rain
2:23 PM 46.4 °F 39.2 °F 44.6 °F 93% 29.53 in 3.0 mi East 18.4 mph 23.0 mph N/A Rain Light Rain
2:28 PM 46.4 °F 39.2 °F 44.6 °F 93% 29.52 in 6.0 mi East 18.4 mph - N/A Rain Light Rain
2:29 PM 46.4 °F 39.5 °F 44.6 °F 93% 29.52 in 6.0 mi East 17.3 mph - N/A   Overcast
2:34 PM 46.4 °F 39.5 °F 44.6 °F 93% 29.51 in 10.0 mi East 17.3 mph - N/A   Overcast
2:58 PM 46.8 °F - 45.1 °F 94% 29.48 in 10.0 mi East 20.7 mph 27.6 mph 0.01 in   Overcast
3:58 PM 48.2 °F - 46.4 °F 93% 29.42 in 10.0 mi East 16.1 mph - N/A   Overcast
4:12 PM 48.2 °F - 46.4 °F 93% 29.41 in 10.0 mi ENE 15.0 mph 24.2 mph N/A Thunderstorm Light Drizzle
4:15 PM 48.2 °F - 46.4 °F 93% 29.41 in 10.0 mi ENE 16.1 mph 24.2 mph N/A Rain , Thunderstorm Light Thunderstorms and Rain
4:25 PM 48.2 °F - 46.4 °F 93% 29.42 in 4.0 mi ENE 12.7 mph - N/A Rain , Thunderstorm Thunderstorms and Rain
4:35 PM 48.2 °F - 46.4 °F 93% 29.42 in 6.0 mi ENE 11.5 mph - N/A Rain , Thunderstorm Light Rain
4:36 PM 48.2 °F - 46.4 °F 93% 29.43 in 5.0 mi ENE 9.2 mph - N/A Rain , Thunderstorm Light Thunderstorms and Rain
4:46 PM 48.2 °F - 46.4 °F 93% 29.45 in 4.0 mi WNW 11.5 mph - N/A Rain , Thunderstorm Light Thunderstorms and Rain
4:53 PM 48.2 °F - 46.4 °F 93% 29.49 in 3.0 mi WSW 15.0 mph - N/A Rain , Thunderstorm Thunderstorms and Rain
4:58 PM 48.2 °F - 46.6 °F 94% 29.52 in 1.5 mi Variable 5.8 mph - 0.10 in Rain , Thunderstorm Heavy Thunderstorms and Rain
5:03 PM 48.2 °F - 46.4 °F 93% 29.47 in 1.0 mi NNE 11.5 mph - N/A Rain , Thunderstorm Heavy Thunderstorms and Rain
5:08 PM 48.2 °F - 46.4 °F 93% 29.45 in 1.2 mi NE 9.2 mph - N/A Rain , Thunderstorm Heavy Thunderstorms and Rain
5:13 PM 48.2 °F - 46.4 °F 93% 29.44 in 2.0 mi NNE 5.8 mph - N/A Rain , Thunderstorm Heavy Thunderstorms and Rain
5:19 PM 48.2 °F - 46.4 °F 93% 29.44 in 2.5 mi Calm Calm - N/A Rain Rain
5:24 PM 48.2 °F - 46.4 °F 93% 29.44 in 3.0 mi NNW 3.5 mph - N/A Rain Rain
5:54 PM 48.2 °F - 46.4 °F 93% 29.44 in 3.0 mi NNW 4.6 mph - N/A Rain Rain
5:58 PM 48.2 °F - 46.4 °F 93% 29.46 in 3.0 mi North 4.6 mph - 0.43 in Rain Rain
6:03 PM 48.2 °F - 46.4 °F 93% 29.44 in 4.0 mi NNE 5.8 mph - N/A Rain Rain
6:23 PM 46.4 °F 42.4 °F 46.4 °F 100% 29.45 in 3.0 mi WNW 8.1 mph - N/A Rain Rain
6:28 PM 46.4 °F 42.9 °F 46.4 °F 100% 29.44 in 2.5 mi NW 6.9 mph - N/A Rain Rain
6:33 PM 46.4 °F 42.4 °F 46.4 °F 100% 29.44 in 2.0 mi NW 8.1 mph - N/A Rain Rain
6:38 PM 46.4 °F 41.9 °F 46.4 °F 100% 29.44 in 1.8 mi WNW 9.2 mph - N/A Rain Rain
6:43 PM 46.4 °F 42.4 °F 46.4 °F 100% 29.44 in 2.0 mi NNW 8.1 mph - N/A Rain Heavy Rain
6:58 PM 46.4 °F 40.1 °F 46.4 °F 100% 29.46 in 2.5 mi NE 15.0 mph - 0.40 in Rain Heavy Rain
7:03 PM 46.4 °F 41.1 °F 46.4 °F 100% 29.41 in 3.0 mi North 11.5 mph - N/A Rain Rain
7:28 PM 46.4 °F 45.2 °F 46.4 °F 100% 29.37 in 10.0 mi Variable 3.5 mph - N/A Rain Light Rain
7:53 PM 46.4 °F 43.5 °F 46.4 °F 100% 29.38 in 10.0 mi NNW 5.8 mph - N/A   Partly Cloudy
7:58 PM 47.1 °F - 46.2 °F 97% 29.39 in 10.0 mi NNE 6.9 mph - 0.13 in   Scattered Clouds
8:28 PM 46.4 °F 41.9 °F 44.6 °F 93% 29.38 in 10.0 mi West 9.2 mph - N/A   Overcast
8:33 PM 46.4 °F 44.3 °F 44.6 °F 93% 29.38 in 10.0 mi West 4.6 mph - N/A   Overcast
8:58 PM 46.8 °F - 45.7 °F 96% 29.39 in 10.0 mi NNW 5.8 mph - N/A   Overcast
9:58 PM 45.9 °F 40.8 °F 45.1 °F 97% 29.39 in 10.0 mi West 10.4 mph - N/A   Overcast
10:58 PM 44.6 °F 40.2 °F 44.6 °F 100% 29.37 in 10.0 mi WNW 8.1 mph - N/A   Overcast
11:28 PM 44.6 °F 40.7 °F 44.6 °F 100% 29.37 in 10.0 mi West 6.9 mph - N/A   Overcast
11:33 PM 44.6 °F 41.4 °F 44.6 °F 100% 29.37 in 10.0 mi WNW 5.8 mph - N/A   Overcast
11:43 PM 44.6 °F 40.7 °F 44.6 °F 100% 29.37 in 10.0 mi West 6.9 mph - N/A   Overcast
11:58 PM 45.0 °F 39.7 °F 43.9 °F 96% 29.39 in 10.0 mi West 10.4 mph - N/A   Overcast